Regional Weather Roundup
Issued by NWS

Home | Current Version | Previous Version | Graphics & Text | Print | Product List | Glossary On
Versions: 1 2 3 4 5 6 7 8 9 10 11 12 13 14 15 16 17 18 19 20 21 22 23 24 25 26 27 28 29 30 31 32 33 34 35 36 37 38 39 40 41 42 43 44 45 46 47 48 49 50
000
ASUS43 KTOP 172008
RWRKS

WEATHER ROUNDUP FOR KANSAS
NATIONAL WEATHER SERVICE GOODLAND KS
300 PM CDT WED SEP 17 2014

NOTE:  "FAIR" INDICATES FEW OR NO CLOUDS BELOW 12,000 FEET WITH NO
SIGNIFICANT WEATHER AND/OR OBSTRUCTIONS TO VISIBILITY.

KSZ001>006-013>018-027>032-041>047-172100-
NORTHWEST KANSAS

CITY           SKY/WX    TMP DP  RH WIND       PRES   REMARKS
GOODLAND       SUNNY     89  53  29 S9G18     29.94F
HAYS           SUNNY     84  66  54 E10       29.87F
HILL CITY      SUNNY     84  63  49 E8        29.89F
RUSSELL        SUNNY     85  67  54 E10       29.86F
$$

KSZ061>065-074>080-084>089-172100-
SOUTHWEST KANSAS

CITY           SKY/WX    TMP DP  RH WIND       PRES   REMARKS
DODGE CITY     MOSUNNY   94  53  25 SE8       29.89F
ELKHART          N/A     88  58  36 S7          N/A
GARDEN CITY    MOSUNNY   92  51  24 SE5       29.90F
GREAT BEND     SUNNY     88  66  48 E7        29.86F
LIBERAL        PTSUNNY   91  55  29 SW13G18   29.93F
PRATT          SUNNY     95  54  24 S7        29.87F
$$

KSZ066>073-081>083-090>101-172100-
SOUTHEAST KANSAS

CITY           SKY/WX    TMP DP  RH WIND       PRES   REMARKS
CHANUTE        PTSUNNY   90  70  51 VRB3      29.86F HX  95
COFFEYVILLE    SUNNY     90  70  51 SW9       29.85F HX  95
HUTCHINSON     SUNNY     92  63  38 CALM      29.85F
MEDICINE LODGE   N/A     93  61  34 S10       29.84F
NEWTON         SUNNY     90  64  43 W3        29.89F
PARSONS        PTSUNNY   89  71  55 SW7       29.87F HX  95
WICHITA INTL   MOSUNNY   97  58  27 VRB7      29.83F HX  96
WICHITA JABRA  SUNNY     93  61  34 SW5       29.84F
WICHITA MCCONL SUNNY     94  59  30 S8        29.84F
WINFIELD       SUNNY     94  63  35 SW9G17    29.85F HX  95
$$

KSZ007>012-019>026-033>040-048>060-102>105-172100-
NORTHEAST KANSAS

CITY           SKY/WX    TMP DP  RH WIND       PRES   REMARKS
CONCORDIA      SUNNY     76  67  73 E13       29.89F
EMPORIA        SUNNY     81  69  67 NE9       29.88F
LAWRENCE       CLOUDY    74  67  78 NE7       29.90F
MANHATTAN      PTSUNNY   78  67  68 NE8       29.89F
MARYSVILLE     MOSUNNY   77  68  73 E8        29.90F
OLATHE IND     CLOUDY    75  67  76 E7        29.91F
OLATHE EXE     CLOUDY    72  67  84 NE8       29.91S
SALINA         SUNNY     85  68  56 NE5       29.87F
TOPEKA BILLARD CLOUDY    76  68  76 E7        29.90F
TOPEKA FORBES  CLOUDY    75  66  73 E9        29.91F
$$


USA.gov is the U.S. government's official web portal to all federal, state and local government web resources and services.